Time,TemperatureF,DewpointF,PressureIn,WindDirection,WindDirectionDegrees,WindSpeedMPH,WindSpeedGustMPH,Humidity,HourlyPrecipIn,Conditions,Clouds,dailyrainin,SoftwareType,DateUTC
2013-08-06 00:03:00,70.9,66.8,29.90,South,178,0.0,0.0,87,0.00,,,0.00,Wunderground v.1.15,2013-08-06 05:03:00,
2013-08-06 00:13:00,70.9,66.8,29.90,South,179,0.0,1.0,87,0.00,,,0.00,Wunderground v.1.15,2013-08-06 05:13:00,
2013-08-06 00:24:00,70.8,66.7,29.90,South,179,0.0,0.0,87,0.00,,,0.00,Wunderground v.1.15,2013-08-06 05:24:00,
2013-08-06 00:33:00,70.8,67.1,29.90,South,179,0.0,1.0,88,0.00,,,0.00,Wunderground v.1.15,2013-08-06 05:33:00,
2013-08-06 00:44:00,70.6,66.9,29.90,South,178,0.0,3.0,88,0.00,,,0.00,Wunderground v.1.15,2013-08-06 05:44:00,
2013-08-06 00:53:00,70.6,66.9,29.90,South,178,0.0,1.0,88,0.00,,,0.00,Wunderground v.1.15,2013-08-06 05:53:00,
2013-08-06 01:04:00,70.4,66.7,29.90,South,178,0.0,0.0,88,0.00,,,0.00,Wunderground v.1.15,2013-08-06 06:04:00,
2013-08-06 01:14:00,70.3,66.9,29.89,South,178,0.0,2.0,89,0.00,,,0.00,Wunderground v.1.15,2013-08-06 06:14:00,
2013-08-06 01:23:00,70.3,66.9,29.90,South,179,0.0,4.0,89,0.00,,,0.00,Wunderground v.1.15,2013-08-06 06:23:00,
2013-08-06 01:33:00,70.3,66.9,29.90,South,179,1.0,3.0,89,0.00,,,0.00,Wunderground v.1.15,2013-08-06 06:33:00,
2013-08-06 01:48:00,70.1,66.7,29.89,South,179,0.0,1.0,89,0.00,,,0.00,Wunderground v.1.15,2013-08-06 06:48:00,
2013-08-06 01:53:00,70.1,66.7,29.89,South,179,0.0,1.0,89,0.00,,,0.00,Wunderground v.1.15,2013-08-06 06:53:00,
2013-08-06 02:04:00,70.1,66.7,29.89,South,179,0.0,2.0,89,0.00,,,0.00,Wunderground v.1.15,2013-08-06 07:04:00,
2013-08-06 02:13:00,70.1,66.7,29.89,South,179,0.0,2.0,89,0.00,,,0.00,Wunderground v.1.15,2013-08-06 07:13:00,
2013-08-06 02:24:00,70.1,67.0,29.89,South,179,1.0,4.0,90,0.00,,,0.00,Wunderground v.1.15,2013-08-06 07:24:00,
2013-08-06 02:33:00,69.9,66.8,29.88,South,179,0.0,2.0,90,0.00,,,0.00,Wunderground v.1.15,2013-08-06 07:33:00,
2013-08-06 02:44:00,69.9,66.8,29.88,South,178,0.0,0.0,90,0.00,,,0.00,Wunderground v.1.15,2013-08-06 07:44:00,
2013-08-06 02:53:00,69.8,66.7,29.87,South,178,0.0,0.0,90,0.00,,,0.00,Wunderground v.1.15,2013-08-06 07:53:00,
2013-08-06 03:04:00,69.6,66.5,29.87,South,178,0.0,0.0,90,0.00,,,0.00,Wunderground v.1.15,2013-08-06 08:04:00,
2013-08-06 03:13:00,69.6,66.5,29.86,South,179,0.0,1.0,90,0.00,,,0.00,Wunderground v.1.15,2013-08-06 08:13:00,
2013-08-06 03:28:00,69.6,66.9,29.86,South,179,0.0,0.0,91,0.00,,,0.00,Wunderground v.1.15,2013-08-06 08:28:00,
2013-08-06 03:33:00,69.6,66.9,29.86,South,179,0.0,0.0,91,0.00,,,0.00,Wunderground v.1.15,2013-08-06 08:33:00,
2013-08-06 03:43:00,69.6,66.9,29.86,South,179,0.0,1.0,91,0.00,,,0.00,Wunderground v.1.15,2013-08-06 08:43:00,
2013-08-06 03:54:00,69.6,66.9,29.85,South,178,0.0,0.0,91,0.00,,,0.00,Wunderground v.1.15,2013-08-06 08:54:00,
2013-08-06 04:03:00,69.6,66.9,29.85,South,179,0.0,0.0,91,0.00,,,0.00,Wunderground v.1.15,2013-08-06 09:03:00,
2013-08-06 04:13:00,69.4,66.7,29.85,South,179,0.0,0.0,91,0.00,,,0.00,Wunderground v.1.15,2013-08-06 09:13:00,
2013-08-06 04:24:00,69.4,66.7,29.86,South,178,0.0,3.0,91,0.00,,,0.00,Wunderground v.1.15,2013-08-06 09:24:00,
2013-08-06 04:33:00,69.4,66.7,29.86,South,178,1.0,3.0,91,0.00,,,0.00,Wunderground v.1.15,2013-08-06 09:33:00,
2013-08-06 04:48:00,69.4,66.7,29.87,South,179,0.0,4.0,91,0.00,,,0.00,Wunderground v.1.15,2013-08-06 09:48:00,
2013-08-06 04:53:00,69.4,66.7,29.87,South,179,0.0,4.0,91,0.00,,,0.00,Wunderground v.1.15,2013-08-06 09:53:00,
2013-08-06 05:04:00,69.4,66.7,29.87,South,182,0.0,4.0,91,0.00,,,0.00,Wunderground v.1.15,2013-08-06 10:04:00,
2013-08-06 05:14:00,69.4,66.7,29.87,South,183,0.0,4.0,91,0.00,,,0.00,Wunderground v.1.15,2013-08-06 10:14:00,
2013-08-06 05:23:00,69.4,66.7,29.86,South,188,0.0,5.0,91,0.00,,,0.00,Wunderground v.1.15,2013-08-06 10:23:00,
2013-08-06 05:38:00,69.4,66.7,29.87,South,188,0.0,0.0,91,0.00,,,0.00,Wunderground v.1.15,2013-08-06 10:38:00,
2013-08-06 05:43:00,69.4,66.7,29.87,South,188,0.0,1.0,91,0.00,,,0.00,Wunderground v.1.15,2013-08-06 10:43:00,
2013-08-06 05:54:00,69.4,66.7,29.88,South,188,0.0,3.0,91,0.00,,,0.00,Wunderground v.1.15,2013-08-06 10:54:00,
2013-08-06 06:04:00,69.4,66.7,29.89,South,188,0.0,0.0,91,0.00,,,0.00,Wunderground v.1.15,2013-08-06 11:04:00,
2013-08-06 06:14:00,69.4,66.7,29.89,South,188,0.0,0.0,91,0.00,,,0.00,Wunderground v.1.15,2013-08-06 11:14:00,
2013-08-06 06:23:00,69.4,66.7,29.89,South,188,0.0,0.0,91,0.00,,,0.00,Wunderground v.1.15,2013-08-06 11:23:00,
2013-08-06 06:33:00,69.4,66.7,29.90,South,182,0.0,3.0,91,0.00,,,0.00,Wunderground v.1.15,2013-08-06 11:33:00,
2013-08-06 06:48:00,69.6,66.9,29.90,South,186,0.0,1.0,91,0.00,,,0.00,Wunderground v.1.15,2013-08-06 11:48:00,
2013-08-06 06:53:00,69.6,66.9,29.91,South,185,0.0,1.0,91,0.00,,,0.00,Wunderground v.1.15,2013-08-06 11:53:00,
2013-08-06 07:04:00,69.8,67.1,29.91,South,185,0.0,0.0,91,0.00,,,0.00,Wunderground v.1.15,2013-08-06 12:04:00,
2013-08-06 07:13:00,69.9,67.2,29.90,South,186,0.0,1.0,91,0.00,,,0.00,Wunderground v.1.15,2013-08-06 12:13:00,
2013-08-06 07:28:00,70.3,67.5,29.90,West,263,0.0,1.0,91,0.00,,,0.00,Wunderground v.1.15,2013-08-06 12:28:00,
2013-08-06 07:33:00,70.4,67.6,29.90,South,182,0.0,5.0,91,0.00,,,0.00,Wunderground v.1.15,2013-08-06 12:33:00,
2013-08-06 07:44:00,70.8,68.0,29.90,South,171,0.0,5.0,91,0.00,,,0.00,Wunderground v.1.15,2013-08-06 12:44:00,
2013-08-06 07:53:00,70.8,68.0,29.90,SSE,163,0.0,4.0,91,0.00,,,0.00,Wunderground v.1.15,2013-08-06 12:53:00,
2013-08-06 08:04:00,70.9,68.1,29.90,South,182,0.0,2.0,91,0.00,,,0.00,Wunderground v.1.15,2013-08-06 13:04:00,
2013-08-06 08:14:00,71.4,68.6,29.89,South,182,0.0,2.0,91,0.00,,,0.00,Wunderground v.1.15,2013-08-06 13:14:00,
2013-08-06 08:23:00,71.6,68.8,29.89,South,182,0.0,0.0,91,0.00,,,0.00,Wunderground v.1.15,2013-08-06 13:23:00,
2013-08-06 08:34:00,71.8,69.0,29.90,South,182,0.0,0.0,91,0.00,,,0.00,Wunderground v.1.15,2013-08-06 13:34:00,
2013-08-06 08:43:00,72.1,69.3,29.90,South,182,0.0,0.0,91,0.00,,,0.00,Wunderground v.1.15,2013-08-06 13:43:00,
2013-08-06 08:53:00,72.3,69.5,29.91,South,182,0.0,0.0,91,0.00,,,0.00,Wunderground v.1.15,2013-08-06 13:53:00,
2013-08-06 09:03:00,72.6,69.5,29.90,South,182,0.0,0.0,90,0.00,,,0.00,Wunderground v.1.15,2013-08-06 14:03:00,
2013-08-06 09:13:00,73.1,70.0,29.91,South,182,0.0,0.0,90,0.00,,,0.00,Wunderground v.1.15,2013-08-06 14:13:00,
2013-08-06 09:24:00,73.6,70.5,29.91,SW,231,0.0,1.0,90,0.00,,,0.00,Wunderground v.1.15,2013-08-06 14:24:00,
2013-08-06 09:33:00,74.1,70.6,29.92,SSE,155,0.0,2.0,89,0.00,,,0.00,Wunderground v.1.15,2013-08-06 14:33:00,
2013-08-06 09:44:00,74.1,70.3,29.92,SSE,168,0.0,2.0,88,0.00,,,0.00,Wunderground v.1.15,2013-08-06 14:44:00,
2013-08-06 09:53:00,74.3,70.2,29.92,SSE,168,0.0,1.0,87,0.00,,,0.00,Wunderground v.1.15,2013-08-06 14:53:00,
2013-08-06 10:03:00,74.3,70.2,29.92,South,169,0.0,1.0,87,0.00,,,0.00,Wunderground v.1.15,2013-08-06 15:03:00,
2013-08-06 10:13:00,74.3,70.2,29.91,South,169,0.0,0.0,87,0.00,,,0.00,Wunderground v.1.15,2013-08-06 15:13:00,
2013-08-06 10:24:00,75.0,71.2,29.91,South,169,0.0,1.0,88,0.00,,,0.00,Wunderground v.1.15,2013-08-06 15:24:00,
2013-08-06 10:34:00,75.3,70.8,29.91,SSE,164,0.0,4.0,86,0.00,,,0.00,Wunderground v.1.15,2013-08-06 15:34:00,
2013-08-06 10:43:00,75.2,70.4,29.91,South,182,0.0,6.0,85,0.00,,,0.00,Wunderground v.1.15,2013-08-06 15:43:00,
2013-08-06 10:54:00,75.7,70.9,29.91,SSE,155,0.0,4.0,85,0.00,,,0.00,Wunderground v.1.15,2013-08-06 15:54:00,
2013-08-06 11:03:00,76.4,70.9,29.91,SSE,163,0.0,0.0,83,0.00,,,0.00,Wunderground v.1.15,2013-08-06 16:03:00,
2013-08-06 11:13:00,76.7,70.1,29.91,North,360,0.0,5.0,80,0.00,,,0.00,Wunderground v.1.15,2013-08-06 16:13:00,
2013-08-06 11:24:00,77.6,70.9,29.90,SSE,161,0.0,3.0,80,0.00,,,0.00,Wunderground v.1.15,2013-08-06 16:24:00,
2013-08-06 11:33:00,79.0,71.6,29.90,South,171,0.0,5.0,78,0.00,,,0.00,Wunderground v.1.15,2013-08-06 16:33:00,
2013-08-06 11:44:00,80.1,71.5,29.89,North,351,0.0,0.0,75,0.00,,,0.00,Wunderground v.1.15,2013-08-06 16:44:00,
2013-08-06 11:53:00,80.6,71.1,29.89,SE,126,0.0,0.0,73,0.00,,,0.00,Wunderground v.1.15,2013-08-06 16:53:00,
2013-08-06 12:04:00,81.6,70.9,29.88,SE,126,0.0,0.0,70,0.00,,,0.00,Wunderground v.1.15,2013-08-06 17:04:00,
2013-08-06 12:14:00,82.1,71.3,29.88,South,170,0.0,5.0,70,0.00,,,0.00,Wunderground v.1.15,2013-08-06 17:14:00,
2013-08-06 12:28:00,83.4,73.0,29.87,South,174,0.0,1.0,71,0.00,,,0.00,Wunderground v.1.15,2013-08-06 17:28:00,
2013-08-06 12:33:00,83.6,72.8,29.86,South,174,0.0,1.0,70,0.00,,,0.00,Wunderground v.1.15,2013-08-06 17:33:00,
2013-08-06 12:44:00,84.8,73.1,29.86,South,174,0.0,0.0,68,0.00,,,0.00,Wunderground v.1.15,2013-08-06 17:44:00,
2013-08-06 12:53:00,85.4,73.2,29.86,South,174,0.0,0.0,67,0.00,,,0.00,Wunderground v.1.15,2013-08-06 17:53:00,
2013-08-06 12:58:00,86.0,73.3,29.86,South,174,0.0,0.0,66,0.00,,,0.00,Wunderground v.1.15,2013-08-06 17:58:00,
2013-08-06 13:04:00,86.1,72.5,29.86,ENE,76,0.0,1.0,64,0.00,,,0.00,Wunderground v.1.15,2013-08-06 18:04:00,
2013-08-06 13:14:00,86.1,73.4,29.85,SE,129,0.0,2.0,66,0.00,,,0.00,Wunderground v.1.15,2013-08-06 18:14:00,
2013-08-06 13:24:00,86.3,73.6,29.85,SSE,167,0.0,3.0,66,0.00,,,0.00,Wunderground v.1.15,2013-08-06 18:24:00,
2013-08-06 13:33:00,87.1,73.4,29.85,SSW,205,0.0,0.0,64,0.00,,,0.00,Wunderground v.1.15,2013-08-06 18:33:00,
2013-08-06 13:44:00,87.3,74.5,29.85,NNE,21,0.0,2.0,66,0.00,,,0.00,Wunderground v.1.15,2013-08-06 18:44:00,
2013-08-06 13:53:00,87.9,73.3,29.85,NNE,20,0.0,0.0,62,0.00,,,0.00,Wunderground v.1.15,2013-08-06 18:53:00,
2013-08-06 14:04:00,88.1,72.5,29.85,NNE,20,0.0,0.0,60,0.00,,,0.00,Wunderground v.1.15,2013-08-06 19:04:00,
2013-08-06 14:13:00,88.1,72.0,29.85,SSW,201,0.0,0.0,59,0.00,,,0.00,Wunderground v.1.15,2013-08-06 19:13:00,
2013-08-06 14:24:00,88.3,70.6,29.85,South,180,0.0,5.0,56,0.00,,,0.00,Wunderground v.1.15,2013-08-06 19:24:00,
2013-08-06 14:33:00,87.9,72.8,29.84,SSE,168,0.0,1.0,61,0.00,,,0.00,Wunderground v.1.15,2013-08-06 19:33:00,
2013-08-06 14:44:00,88.3,71.6,29.84,SSE,168,0.0,1.0,58,0.00,,,0.00,Wunderground v.1.15,2013-08-06 19:44:00,
2013-08-06 14:53:00,87.7,73.1,29.83,SSE,168,0.0,2.0,62,0.00,,,0.00,Wunderground v.1.15,2013-08-06 19:53:00,
2013-08-06 15:04:00,88.5,71.8,29.83,SSW,200,0.0,1.0,58,0.00,,,0.00,Wunderground v.1.15,2013-08-06 20:04:00,
2013-08-06 15:13:00,89.6,72.9,29.83,SSW,198,0.0,1.0,58,0.00,,,0.00,Wunderground v.1.15,2013-08-06 20:13:00,
2013-08-06 15:28:00,89.8,73.6,29.82,SSW,198,0.0,3.0,59,0.00,,,0.00,Wunderground v.1.15,2013-08-06 20:28:00,
2013-08-06 15:33:00,89.0,72.8,29.82,SSW,197,0.0,4.0,59,0.00,,,0.00,Wunderground v.1.15,2013-08-06 20:33:00,
2013-08-06 15:44:00,87.7,72.6,29.82,SSW,197,0.0,4.0,61,0.00,,,0.00,Wunderground v.1.15,2013-08-06 20:44:00,
2013-08-06 15:54:00,87.7,74.0,29.82,SSW,197,0.0,2.0,64,0.00,,,0.00,Wunderground v.1.15,2013-08-06 20:54:00,
2013-08-06 15:58:00,87.9,75.1,29.83,SSW,197,0.0,1.0,66,0.00,,,0.00,Wunderground v.1.15,2013-08-06 20:58:00,
2013-08-06 16:03:00,88.3,74.6,29.83,SSW,197,0.0,1.0,64,0.00,,,0.00,Wunderground v.1.15,2013-08-06 21:03:00,
2013-08-06 16:18:00,88.7,73.5,29.83,South,190,0.0,1.0,61,0.00,,,0.00,Wunderground v.1.15,2013-08-06 21:18:00,
2013-08-06 16:23:00,89.4,73.7,29.83,South,190,0.0,1.0,60,0.00,,,0.00,Wunderground v.1.15,2013-08-06 21:23:00,
2013-08-06 16:34:00,88.3,74.1,29.83,South,189,0.0,1.0,63,0.00,,,0.00,Wunderground v.1.15,2013-08-06 21:34:00,
2013-08-06 16:48:00,86.0,72.9,29.82,South,189,0.0,0.0,65,0.00,,,0.00,Wunderground v.1.15,2013-08-06 21:48:00,
2013-08-06 16:53:00,85.4,73.6,29.81,South,189,0.0,0.0,68,0.00,,,0.00,Wunderground v.1.15,2013-08-06 21:53:00,
2013-08-06 17:04:00,84.6,72.9,29.82,SSW,210,0.0,0.0,68,0.00,,,0.00,Wunderground v.1.15,2013-08-06 22:04:00,
2013-08-06 17:14:00,85.0,72.4,29.83,South,175,1.0,1.0,66,0.00,,,0.00,Wunderground v.1.15,2013-08-06 22:14:00,
2013-08-06 17:23:00,86.0,72.9,29.83,SSE,156,0.0,2.0,65,0.00,,,0.00,Wunderground v.1.15,2013-08-06 22:23:00,
2013-08-06 17:38:00,84.6,72.4,29.83,SSE,167,1.0,1.0,67,0.00,,,0.00,Wunderground v.1.15,2013-08-06 22:38:00,
2013-08-06 18:03:00,84.0,74.0,29.84,SSE,167,0.0,0.0,72,0.00,,,0.00,Wunderground v.1.15,2013-08-06 23:03:00,
2013-08-06 18:13:00,84.0,74.0,29.83,SSE,167,0.0,0.0,72,0.00,,,0.00,Wunderground v.1.15,2013-08-06 23:13:00,
2013-08-06 18:23:00,83.4,73.0,29.83,SSE,167,0.0,1.0,71,0.00,,,0.00,Wunderground v.1.15,2013-08-06 23:23:00,
2013-08-06 18:33:00,83.2,72.8,29.83,SSE,167,0.0,1.0,71,0.00,,,0.00,Wunderground v.1.15,2013-08-06 23:33:00,
2013-08-06 18:43:00,83.1,73.5,29.83,SSE,167,0.0,0.0,73,0.00,,,0.00,Wunderground v.1.15,2013-08-06 23:43:00,
2013-08-06 18:53:00,82.5,72.6,29.83,SSE,167,0.0,1.0,72,0.00,,,0.00,Wunderground v.1.15,2013-08-06 23:53:00,
2013-08-06 19:03:00,81.9,72.0,29.83,SSE,167,0.0,0.0,72,0.00,,,0.00,Wunderground v.1.15,2013-08-07 00:03:00,
2013-08-06 19:13:00,81.6,72.5,29.83,SSE,167,0.0,0.0,74,0.00,,,0.00,Wunderground v.1.15,2013-08-07 00:13:00,
2013-08-06 19:23:00,80.8,72.1,29.83,SSE,167,0.0,0.0,75,0.00,,,0.00,Wunderground v.1.15,2013-08-07 00:23:00,
2013-08-06 19:33:00,80.3,72.0,29.83,WNW,290,0.0,0.0,76,0.00,,,0.00,Wunderground v.1.15,2013-08-07 00:33:00,
2013-08-06 19:43:00,79.7,71.8,29.83,WNW,290,0.0,0.0,77,0.00,,,0.00,Wunderground v.1.15,2013-08-07 00:43:00,
2013-08-06 19:53:00,79.0,71.6,29.83,WNW,290,0.0,0.0,78,0.00,,,0.00,Wunderground v.1.15,2013-08-07 00:53:00,
2013-08-06 20:03:00,78.3,71.6,29.83,WNW,290,0.0,0.0,80,0.00,,,0.00,Wunderground v.1.15,2013-08-07 01:03:00,
2013-08-06 20:13:00,77.6,71.7,29.83,WNW,298,0.0,0.0,82,0.00,,,0.00,Wunderground v.1.15,2013-08-07 01:13:00,
2013-08-06 20:23:00,77.1,71.5,29.83,WNW,298,0.0,0.0,83,0.00,,,0.00,Wunderground v.1.15,2013-08-07 01:23:00,
2013-08-06 20:33:00,76.6,71.4,29.83,WNW,298,0.0,0.0,84,0.00,,,0.00,Wunderground v.1.15,2013-08-07 01:33:00,
2013-08-06 20:43:00,76.2,71.7,29.84,WNW,298,0.0,0.0,86,0.00,,,0.00,Wunderground v.1.15,2013-08-07 01:43:00,
2013-08-06 20:53:00,76.2,72.0,29.85,WNW,298,0.0,0.0,87,0.00,,,0.00,Wunderground v.1.15,2013-08-07 01:53:00,
2013-08-06 21:03:00,76.4,72.6,29.85,WNW,298,0.0,0.0,88,0.00,,,0.00,Wunderground v.1.15,2013-08-07 02:03:00,
2013-08-06 21:13:00,76.2,72.4,29.85,WNW,298,0.0,0.0,88,0.00,,,0.00,Wunderground v.1.15,2013-08-07 02:13:00,
2013-08-06 21:23:00,76.0,72.2,29.85,WNW,298,0.0,0.0,88,0.00,,,0.00,Wunderground v.1.15,2013-08-07 02:23:00,
2013-08-06 21:33:00,75.7,71.9,29.86,WNW,298,0.0,0.0,88,0.00,,,0.00,Wunderground v.1.15,2013-08-07 02:33:00,
2013-08-06 21:43:00,75.5,72.0,29.87,WNW,298,0.0,0.0,89,0.00,,,0.00,Wunderground v.1.15,2013-08-07 02:43:00,
2013-08-06 21:53:00,75.0,71.5,29.87,WNW,298,0.0,0.0,89,0.00,,,0.00,Wunderground v.1.15,2013-08-07 02:53:00,
2013-08-06 22:03:00,74.8,71.3,29.87,WNW,298,0.0,0.0,89,0.00,,,0.00,Wunderground v.1.15,2013-08-07 03:03:00,
2013-08-06 22:13:00,74.5,71.0,29.87,WNW,298,0.0,0.0,89,0.00,,,0.00,Wunderground v.1.15,2013-08-07 03:13:00,
2013-08-06 22:23:00,74.7,71.6,29.86,WNW,298,0.0,0.0,90,0.00,,,0.00,Wunderground v.1.15,2013-08-07 03:23:00,
2013-08-06 22:33:00,75.0,71.9,29.86,WNW,298,0.0,0.0,90,0.00,,,0.00,Wunderground v.1.15,2013-08-07 03:33:00,
2013-08-06 22:43:00,75.0,72.2,29.85,WNW,298,0.0,0.0,91,0.00,,,0.00,Wunderground v.1.15,2013-08-07 03:43:00,
2013-08-06 22:53:00,74.8,72.0,29.86,WNW,298,0.0,0.0,91,0.00,,,0.00,Wunderground v.1.15,2013-08-07 03:53:00,
2013-08-06 23:03:00,75.0,72.2,29.86,WNW,295,0.0,0.0,91,0.00,,,0.00,Wunderground v.1.15,2013-08-07 04:03:00,
2013-08-06 23:13:00,75.0,72.2,29.86,WNW,295,0.0,0.0,91,0.00,,,0.00,Wunderground v.1.15,2013-08-07 04:13:00,
2013-08-06 23:18:00,75.0,72.2,29.86,WNW,295,0.0,0.0,91,0.00,,,0.00,Wunderground v.1.15,2013-08-07 04:18:00,
2013-08-06 23:23:00,74.8,72.0,29.86,WNW,295,0.0,0.0,91,0.00,,,0.00,Wunderground v.1.15,2013-08-07 04:23:00,
2013-08-06 23:28:00,74.8,72.0,29.86,WNW,295,0.0,0.0,91,0.00,,,0.00,Wunderground v.1.15,2013-08-07 04:28:00,
2013-08-06 23:33:00,74.7,71.9,29.85,WNW,295,0.0,0.0,91,0.00,,,0.00,Wunderground v.1.15,2013-08-07 04:33:00,
2013-08-06 23:43:00,74.7,71.9,29.85,WNW,295,0.0,0.0,91,0.00,,,0.00,Wunderground v.1.15,2013-08-07 04:43:00,
2013-08-06 23:53:00,74.5,71.7,29.86,WNW,295,0.0,0.0,91,0.00,,,0.00,Wunderground v.1.15,2013-08-07 04:53:00,